Location: Grange Verzio
(44.5000°N, 6.9833°E)
Time: 00:53:05
(UTC+00:00)

Cosmos 2219 Rocket - Visible Passes

Search period start: 25 September 2023 00:00
Search period end: 05 October 2023 00:00
Orbit: 828 x 846 km, 71.0° (Epoch: 24 September)

Date Brightness Start Highest point End Pass type
(mag) Time Alt. Az. Time Alt. Az. Time Alt. Az.
25 Sep 3.3 03:37:29 10° NNW 03:42:54 45° ENE 03:48:18 10° SE visible
25 Sep 2.1 18:29:19 10° S 18:34:48 64° ESE 18:40:22 10° NNE visible
25 Sep 4.4 20:14:51 10° W 20:19:14 23° NW 20:23:39 10° N visible
26 Sep 3.4 03:21:00 10° NNW 03:26:21 42° ENE 03:31:41 10° SE visible
26 Sep 2.2 18:12:50 10° S 18:18:18 59° ESE 18:23:48 10° NNE visible
26 Sep 4.3 19:58:08 10° WSW 20:02:39 25° NW 20:07:12 10° N visible
27 Sep 3.5 03:04:30 10° NNW 03:09:48 39° NE 03:15:04 10° SE visible
27 Sep 2.8 04:48:37 10° NW 04:53:39 34° WSW 04:58:40 10° SSW visible
27 Sep 2.3 17:56:22 10° S 18:01:47 55° ESE 18:07:15 10° NNE visible
27 Sep 4.3 19:41:26 10° WSW 19:46:04 26° NW 19:50:45 10° N visible
28 Sep 3.6 02:48:01 10° NNW 02:53:14 37° NE 02:58:26 10° ESE visible
28 Sep 2.7 04:32:01 10° NW 04:37:09 37° WSW 04:42:17 10° S visible
28 Sep 2.4 17:39:55 10° S 17:45:17 51° ESE 17:50:42 10° NE visible
28 Sep 4.2 19:24:45 10° WSW 19:29:29 28° NW 19:34:17 10° N visible
29 Sep 3.7 02:31:32 10° N 02:36:40 34° NE 02:41:47 10° ESE visible
29 Sep 2.6 04:15:26 10° NW 04:20:39 40° WSW 04:25:53 10° S visible
29 Sep 4.1 19:08:04 10° WSW 19:12:55 30° NW 19:17:48 10° N visible
30 Sep 3.8 02:15:03 10° N 02:20:06 32° NE 02:25:08 10° ESE visible
30 Sep 2.5 03:58:51 10° NW 04:04:09 43° WSW 04:09:28 10° S visible
30 Sep 4.0 18:51:24 10° WSW 18:56:20 32° NW 19:01:19 10° N visible
01 Oct 3.9 01:58:34 10° N 02:03:32 30° NE 02:08:28 10° ESE visible
01 Oct 2.4 03:42:17 10° NW 03:47:40 46° WSW 03:53:02 10° S visible
01 Oct 3.9 18:34:44 10° WSW 18:39:46 34° NW 18:44:51 10° N visible
02 Oct 3.9 01:42:05 10° N 01:46:57 28° NE 01:51:48 10° ESE visible
02 Oct 2.3 03:25:42 10° NW 03:31:08 50° WSW 03:36:35 10° S visible
02 Oct 3.8 18:18:05 10° WSW 18:23:12 36° NW 18:28:21 10° NNE visible
03 Oct 4.6 01:25:37 10° N 01:37:05 - ESE 01:26:54 15° N visible
03 Oct 4.1 03:19:06 16° S 03:19:06 16° S 03:20:08 10° S visible
03 Oct 3.7 18:01:26 10° SW 18:06:37 38° NW 18:11:52 10° NNE visible
04 Oct 3.6 17:44:48 10° SW 17:50:04 41° WNW 17:55:23 10° NNE visible
